{"data":{"norad_id":63845,"epoch":"2026-05-25T00:50:57.092064Z","epoch_age_seconds":68109,"freshness":"FRESH","line1":"1 63845U 25093K   26145.03538301  .00032960  00000+0  12003-2 0  9993","line2":"2 63845  42.9995   7.1477 0001124 274.6289  85.4434 15.27625040 59428","mean_motion":15.2762504,"eccentricity":0.0001124,"inclination_deg":42.9995,"raan_deg":7.1477,"arg_perigee_deg":274.6289,"mean_anomaly_deg":85.4434,"bstar":0.0012003,"rev_number":5942,"period_min":94.263969383482,"perigee_km":482.1430512316,"apogee_km":483.68541554886,"semimajor_km":6861.0512333902,"source":"CELESTRAK","updated_at":"2026-05-25T13:38:20.147767Z"}}